Terminal Aerodrome Forecast
Issued by NWS La Crosse, WI

Home | Current Version | Previous Version | Text Only | Print | Product List | Glossary On
Versions: 1 2 3 4 5 6 7 8 9 10 11 12 13 14 15 16 17 18 19 20 21 22 23 24 25 26 27 28 29 30 31 32 33 34 35 36 37 38 39 40 41 42 43 44
000
FTUS43 KARX 042107 AAB
TAFLSE
TAF AMD
KLSE 042107Z 0421/0518 13006KT P6SM VCSH BKN040
     FM050000 14005KT P6SM SCT035 SCT130
     FM051000 15005KT P6SM BKN130=

USA.gov is the U.S. government's official web portal to all federal, state and local government web resources and services.